Flag for Canada Weather past 2 weeks in Port Coquitlam, British Columbia, Canada

Now
58 °F

Cool.


Feels Like: 59 °F
Forecast: 55 / 68 °F
Wind: 3 mph from South

Location: P. Meadows Coastal Station

Current Time: May 23, 2015 at 10:10:48 AM

Latest Report: May 23, 2015 at 9:00 AM


Visibility: N/A

Pressure: 30.15 "Hg

Humidity: 78%

Dew point: 51 °F

Location of Port CoquitlamLocation

Historic Weather in Port Coquitlam — Graph

°F

Port Coquitlam temperature yesterday

Maximum temperature yesterday: 67 °F (at 5:00 PM)
Minimum temperature yesterday: 54 °F (at 5:00 AM)
Average temperature yesterday: 61 °F

Past Weeks' High & Low Weather Summary

 TemperatureHumidityPressure
High79 °F (May 21, 4:00 PM)98% (May 22, 5:00 AM)30.14 "Hg (May 22, 5:00 AM)
Low44 °F (May 9, 6:00 AM)22% (May 8, 2:00 PM)29.77 "Hg (May 21, 5:00 PM)
Average61 °F70%29.95 "Hg
* Reported May 8 8:00 AM — May 23 8:00 AM, Port Coquitlam, Weather by CustomWeather, © 2015

Note: Actual official high and low records may vary slightly from our data, if they occured in-between our weather recording intervals... More about our weather records

Advertising

Port Coquitlam weather history for previous 24 hours

 ConditionsComfort  
Time TempWeatherWind HumidityBarometerVisibility
8:00 AM
Sat, May 23
57 °FCool.3 mph78%30.14 "HgN/A
7:00 AM57 °FCool.2 mph79%30.13 "HgN/A
6:00 AM57 °FCool.1 mph75%30.11 "HgN/A
5:00 AM57 °FCool.2 mph82%30.10 "HgN/A
4:00 AM58 °FCool.3 mph79%30.10 "HgN/A
3:00 AM58 °FCool.2 mph80%30.09 "HgN/A
2:00 AM58 °FCool.2 mph80%30.08 "HgN/A
1:00 AM59 °FCool.5 mph78%30.07 "HgN/A
12:00 AM60 °FCool.2 mph77%30.05 "HgN/A
11:00 PM
Fri, May 22
59 °FCool.3 mph80%30.04 "HgN/A
10:00 PM61 °FCool.1 mph74%30.02 "HgN/A
9:00 PM61 °FCool.2 mph74%30.00 "HgN/A
8:00 PM62 °FCool.6 mph70%29.99 "HgN/A
7:00 PM64 °FMild.5 mph70%29.96 "HgN/A
6:00 PM66 °FMild.3 mph64%29.96 "HgN/A
5:00 PM67 °FMild.6 mph63%29.96 "HgN/A
4:00 PM67 °FMild.3 mph62%29.96 "HgN/A
3:00 PM64 °FMild.7 mph67%29.96 "HgN/A
2:00 PM63 °FMild.6 mph70%29.96 "HgN/A
1:00 PM66 °FMild.6 mph62%29.96 "HgN/A
12:00 PM65 °FMild.5 mph65%29.95 "HgN/A
11:00 AM63 °FMild.5 mph70%29.95 "HgN/A
10:00 AM63 °FMild.5 mph68%29.94 "HgN/A
Weather by CustomWeather, © 2015

See weather overviewHow to use our weather pages